Weather History for KABR - February, 2013

Change the Weather History Date:

Monday, February 11, 2013

  Actual Average Record
Temperature  
Mean Temperature 15 °F 16 °F  
Max Temperature 23 °F 27 °F 58 °F (1987)
Min Temperature 7 °F 6 °F -35 °F (1988)
Degree Days  
Heating Degree Days 50 49  
Month to date heating degree days 527 554  
Since 1 July heating degree days 5540 5688  
Cooling Degree Days 0 0  
Month to date cooling degree days 0 0  
Year to date cooling degree days 0 0  
Moisture  
Dew Point 14 °F    
Average Humidity 80    
Maximum Humidity 91    
Minimum Humidity 68    
Precipitation  
Precipitation T in 0.01 in 0.80 in (1922)
Month to date precipitation 0.95 0.17  
Year to date precipitation 1.73 0.64  
Snow  
Snow T in - - ()
Month to date snowfall 13.7  
Since 1 July snowfall 37.2  
Snow Depth 15.00 in    
Sea Level Pressure  
Sea Level Pressure 30.01 in    
Wind  
Wind Speed 15 mph (WNW)    
Max Wind Speed 35 mph    
Max Gust Speed 41 mph    
Visibility 7 miles    
Events Snow    
T = Trace of Precipitation, MM = Missing Value Source: NWS Daily Summary

Daily Weather History Graph

Daily Weather History Graph

Search for Another Location

Airport or City:

Trip Planner

Search our weather history database for the weather conditions in past years. The results will help you decide how hot, cold, wet, or windy it might be!

Date:

Astronomy

Feb. 11, 2013 Rise Set
Actual Time 7:40 AM CST 5:55 PM CST
Civil Twilight 7:10 AM CST 6:26 PM CST
Nautical Twilight 6:35 AM CST 7:01 PM CST
Astronomical Twilight 6:01 AM CST 7:35 PM CST
Moon 7:59 AM CST (2/11) 8:02 PM CST (2/11)
Length of Visible Light 11h 16m
Length of Day
10h 14m
Waxing Crescent, 3% of the Moon is Illuminated
Feb 11
Waxing Crescent
Feb 17
First Quarter
Feb 25
Full
Mar 4
Last Quarter
Mar 11
New

Hourly Weather History & Observations

Time (CST) Temp. Windchill Dew Point Humidity Pressure Visibility Wind Dir Wind Speed Gust Speed Precip Events Conditions
12:53 AM 21.9 °F 5.5 °F 18.0 °F 85% 29.87 in 1.8 mi NW 24.2 mph 36.8 mph N/A   Overcast
12:57 AM 21.2 °F 3.9 °F 17.6 °F 86% 29.82 in 2.0 mi NW 26.5 mph 36.8 mph N/A   Overcast
1:04 AM 21.2 °F 4.2 °F 17.6 °F 86% 29.82 in 1.8 mi NW 25.3 mph 33.4 mph N/A Snow Light Snow
1:16 AM 21.2 °F 3.9 °F 17.6 °F 86% 29.82 in 2.0 mi NW 26.5 mph 34.5 mph N/A Snow Light Snow
1:32 AM 21.2 °F 4.2 °F 17.6 °F 86% 29.83 in 1.8 mi NW 25.3 mph 34.5 mph N/A Snow Light Snow
1:53 AM 21.0 °F 4.3 °F 17.1 °F 85% 29.89 in 1.8 mi NW 24.2 mph 31.1 mph N/A Snow Light Snow
2:16 AM 21.2 °F 4.2 °F 17.6 °F 86% 29.84 in 1.5 mi NW 25.3 mph - N/A Snow Light Snow
2:32 AM 21.2 °F 4.2 °F 17.6 °F 86% 29.85 in 3.0 mi NNW 25.3 mph 31.1 mph N/A Snow Light Snow
2:53 AM 21.0 °F 4.6 °F 17.1 °F 85% 29.92 in 4.0 mi NNW 23.0 mph 32.2 mph N/A Snow Light Snow
3:53 AM 21.9 °F 5.8 °F 17.1 °F 82% 29.94 in 8.0 mi NNW 23.0 mph 28.8 mph N/A Snow Light Snow
4:53 AM 21.0 °F 5.0 °F 16.0 °F 81% 29.95 in 9.0 mi NNW 21.9 mph - N/A Snow Light Snow
5:53 AM 21.0 °F 6.2 °F 15.1 °F 78% 29.98 in 10.0 mi NNW 18.4 mph - N/A   Mostly Cloudy
6:53 AM 19.9 °F 3.9 °F 15.1 °F 81% 30.01 in 6.0 mi NNW 20.7 mph 31.1 mph N/A Snow Light Snow
7:53 AM 19.0 °F 4.5 °F 12.9 °F 77% 30.05 in 9.0 mi NNW 16.1 mph 26.5 mph N/A Snow Light Snow
8:53 AM 19.0 °F 3.6 °F 14.0 °F 81% 30.07 in 10.0 mi North 18.4 mph 24.2 mph N/A   Overcast
9:53 AM 19.9 °F 4.8 °F 12.9 °F 74% 30.08 in 10.0 mi NNW 18.4 mph - N/A   Overcast
10:53 AM 19.9 °F 4.3 °F 12.9 °F 74% 30.11 in 8.0 mi NNW 19.6 mph - 0.00 in Snow Light Snow
11:53 AM 19.9 °F 6.7 °F 12.9 °F 74% 30.12 in 8.0 mi NNW 13.8 mph - 0.00 in Snow Light Snow
12:53 PM 21.0 °F 8.1 °F 12.9 °F 71% 30.12 in 10.0 mi NW 13.8 mph - 0.00 in   Overcast
1:53 PM 21.0 °F 7.1 °F 12.9 °F 71% 30.12 in 10.0 mi NW 16.1 mph - 0.00 in   Overcast
2:53 PM 21.9 °F 9.8 °F 14.0 °F 72% 30.10 in 10.0 mi NNW 12.7 mph - 0.00 in   Overcast
3:53 PM 21.9 °F 17.2 °F 15.1 °F 75% 30.11 in 10.0 mi NW 3.5 mph - N/A   Overcast
4:53 PM 21.9 °F 14.5 °F 16.0 °F 78% 30.10 in 10.0 mi WSW 5.8 mph - N/A   Overcast
5:53 PM 21.0 °F 14.6 °F 16.0 °F 81% 30.08 in 9.0 mi SSW 4.6 mph - N/A   Overcast
6:53 PM 21.0 °F 11.4 °F 17.1 °F 85% 30.08 in 10.0 mi SSW 8.1 mph - N/A   Overcast
7:53 PM 19.9 °F 8.6 °F 16.0 °F 85% 30.07 in 10.0 mi South 10.4 mph - N/A   Mostly Cloudy
8:05 PM 17.6 °F 5.7 °F 14.0 °F 86% 30.00 in 10.0 mi South 10.4 mph - N/A   Scattered Clouds
8:53 PM 15.1 °F 3.3 °F 10.9 °F 84% 30.08 in 10.0 mi SSW 9.2 mph - N/A   Clear
9:53 PM 12.0 °F -0.4 °F 9.0 °F 88% 30.08 in - South 9.2 mph - 0.00 in Snow Light Snow
10:48 PM 8.6 °F -2.6 °F 6.8 °F 92% 29.99 in 10.0 mi SSW 6.9 mph - N/A   Clear
10:53 PM 8.1 °F -4.3 °F 5.0 °F 87% 30.06 in - SSW 8.1 mph - 0.01 in   Clear
11:53 PM 9.0 °F -5.1 °F 5.0 °F 84% 30.04 in - South 10.4 mph - N/A   Clear